Карточка аэропорта USTR

Внимание!
Информация на этой странице в стадии наполнения.
Если вы не увидели какой-то информации, или заметили неточность - пожалуйста сообщите нам!
Спасибо!
Команда RU-STAFF
Название аэропортаРощино
Название аэропорта (англ.)Roshschino
Превышение378 ft. (115.2 m.)
Координаты57°10.098', 65°19.002'
Высота перехода700m
Эшелон переходаFL040
Коды ответчика5101-5137
Зона ОрВДТюмень РПИ (USTV)
Данные METARUSTR 031700Z 20004MPS CAVOK M11/M16 Q1026 R21/090065 R30/090065 NOSIG
Проноз погоды (TAF)USTR 031331Z 0315/0415 20003MPS 6000 DRSN SCT020 TEMPO 0315/0406 VRB01MPS 0900 FZFG VV002
NOTAMshow/hide NOTAM
AWOS   TABLE

Информация о ВПП

ВПП Длина ВПП (м.) Покрытие Курс ВПП Частота ILS
033003Асфальтобетон34108.3
122704Асфальтобетон121 
213003Асфальтобетон214110.7
302704Асфальтобетон301 

Диспетчерские позиции

Позывной Наименование органа УВД Частота
USTR_GNDТюмень-Руление119.000
USTR_R_APPТюмень-Круг126.100
USTR_TWRТюмень-Старт118.200



Спутниковое изображение